Fayetteville, AR

2:41 AM CDT on September 22, 2017 (GMT -0500)
Drake

Weather History for KFYV - December, 2013

Change the Weather History Date:

Monday, December 23, 2013

  Actual Average Record
Temperature  
Mean Temperature 22 °F 36 °F  
Max Temperature 27 °F 47 °F 69 °F (1982)
Min Temperature 17 °F 26 °F -14 °F (1963)
Degree Days  
Heating Degree Days 43 29  
Month to date heating degree days 689 620  
Since 1 July heating degree days 1578 1449  
Moisture  
Dew Point 20 °F    
Average Humidity 83    
Maximum Humidity 91    
Minimum Humidity 75    
Precipitation  
Precipitation T in 0.11 in 0.96 in (2002)
Month to date precipitation 4.09 2.48  
Year to date precipitation 46.62 47.75  
Sea Level Pressure  
Sea Level Pressure 30.52 in    
Wind  
Wind Speed 5 mph (North)    
Max Wind Speed 13 mph    
Max Gust Speed 17 mph    
Visibility 9 miles    
Events Snow    
T = Trace of Precipitation, MM = Missing Value Source: NWS Daily Summary

Daily Weather History Graph

Daily Weather History Graph

Search for Another Location

Airport or City:

Trip Planner

Search our weather history database for the weather conditions in past years. The results will help you decide how hot, cold, wet, or windy it might be!

Date:

Astronomy

Dec. 23, 2013 Rise Set
Actual Time 7:24 AM CST 5:07 PM CST
Civil Twilight 6:55 AM CST 5:36 PM CST
Nautical Twilight 6:23 AM CST 6:08 PM CST
Astronomical Twilight 5:52 AM CST 6:39 PM CST
Moon 11:07 PM CST (12/23) 11:00 AM CST (12/23)
Length of Visible Light 10h 40m
Length of Day
9h 42m
Waning Gibbous, 68% of the Moon is Illuminated
Dec 23
Waning Gibbous
Dec 25
Last Quarter
Jan 1
New
Jan 7
First Quarter
Jan 15
Full

Hourly Weather History & Observations

Time (CST) Temp. Windchill Dew Point Humidity Pressure Visibility Wind Dir Wind Speed Gust Speed Precip Events Conditions
12:42 AM 24.8 °F 17.9 °F 21.2 °F 86% 30.34 in 10.0 mi NW 5.8 mph - N/A   Overcast
12:53 AM 25.0 °F 15.5 °F 21.0 °F 85% 30.38 in 10.0 mi NW 9.2 mph - N/A   Overcast
1:53 AM 25.0 °F 16.3 °F 21.0 °F 85% 30.41 in 10.0 mi North 8.1 mph - N/A   Overcast
2:53 AM 25.0 °F 20.7 °F 21.0 °F 85% 30.41 in 10.0 mi North 3.5 mph - N/A   Overcast
3:53 AM 24.1 °F 19.7 °F 19.9 °F 84% 30.41 in 10.0 mi NNE 3.5 mph - N/A   Overcast
4:53 AM 24.1 °F 19.7 °F 19.9 °F 84% 30.42 in 10.0 mi NNE 3.5 mph - N/A   Overcast
5:53 AM 24.1 °F - 19.9 °F 84% 30.44 in 10.0 mi Calm Calm - N/A   Overcast
6:53 AM 24.1 °F 19.7 °F 19.9 °F 84% 30.47 in 10.0 mi North 3.5 mph - N/A   Overcast
7:53 AM 24.1 °F 17.0 °F 19.9 °F 84% 30.51 in 9.0 mi NNW 5.8 mph - N/A   Overcast
8:53 AM 24.1 °F 15.2 °F 19.9 °F 84% 30.54 in 10.0 mi NNW 8.1 mph - N/A   Overcast
9:53 AM 24.1 °F 17.0 °F 19.9 °F 84% 30.55 in 10.0 mi North 5.8 mph - N/A   Overcast
10:35 AM 24.8 °F 15.3 °F 19.4 °F 80% 30.49 in 10.0 mi ENE 9.2 mph - N/A   Overcast
10:53 AM 25.0 °F 16.3 °F 19.9 °F 81% 30.54 in 10.0 mi ENE 8.1 mph - N/A   Overcast
11:53 AM 26.1 °F 18.4 °F 19.9 °F 78% 30.56 in 10.0 mi NW 6.9 mph - N/A   Overcast
12:53 PM 25.0 °F 17.1 °F 19.9 °F 81% 30.54 in 10.0 mi NW 6.9 mph - N/A   Overcast
1:53 PM 26.1 °F 19.4 °F 21.0 °F 81% 30.53 in 10.0 mi NW 5.8 mph - N/A   Overcast
2:53 PM 27.0 °F 23.0 °F 19.9 °F 75% 30.53 in 10.0 mi North 3.5 mph - N/A   Overcast
3:53 PM 27.0 °F 20.5 °F 19.9 °F 75% 30.54 in 10.0 mi NNW 5.8 mph - N/A   Overcast
4:48 PM 26.6 °F 20.0 °F 21.2 °F 80% 30.52 in 4.0 mi NNW 5.8 mph - 0.00 in Snow Light Snow
4:53 PM 27.0 °F 18.7 °F 21.9 °F 81% 30.56 in 4.0 mi NNW 8.1 mph - 0.00 in Snow Light Snow
5:35 PM 26.6 °F 17.5 °F 21.2 °F 80% 30.52 in 7.0 mi NNW 9.2 mph - 0.00 in   Overcast
5:53 PM 25.0 °F 16.3 °F 21.9 °F 88% 30.57 in 10.0 mi NNW 8.1 mph - 0.00 in   Overcast
6:04 PM 24.8 °F 15.3 °F 21.2 °F 86% 30.52 in 10.0 mi North 9.2 mph - N/A   Overcast
6:16 PM 24.8 °F 16.1 °F 21.2 °F 86% 30.53 in 10.0 mi North 8.1 mph - N/A   Overcast
6:35 PM 24.8 °F 14.6 °F 21.2 °F 86% 30.53 in 9.0 mi NNW 10.4 mph - N/A   Overcast
6:53 PM 24.1 °F 17.0 °F 19.9 °F 84% 30.58 in 10.0 mi North 5.8 mph - N/A   Overcast
7:15 PM 24.8 °F 19.1 °F 19.4 °F 80% 30.54 in 10.0 mi North 4.6 mph - N/A   Overcast
7:53 PM 24.1 °F 17.0 °F 19.9 °F 84% 30.60 in 10.0 mi NNW 5.8 mph - N/A   Overcast
8:53 PM 21.0 °F 13.4 °F 17.1 °F 85% 30.59 in 10.0 mi NNW 5.8 mph - N/A   Clear
9:14 PM 21.2 °F 11.7 °F 17.6 °F 86% 30.55 in 10.0 mi NNW 8.1 mph - N/A   Mostly Cloudy
9:53 PM 21.0 °F - 18.0 °F 88% 30.60 in 9.0 mi Calm Calm - N/A   Scattered Clouds
10:53 PM 19.0 °F - 17.1 °F 92% 30.60 in 8.0 mi Calm Calm - N/A   Clear
11:53 PM 17.1 °F 10.0 °F 15.1 °F 92% 30.58 in 6.0 mi East 4.6 mph - N/A   Partly Cloudy